Flag for U.S.A. Weather past 2 weeks in Olympia, Washington, U.S.A.

Now
36 °F

Fog.


Feels Like: 36 °F
Forecast: 41 / 51 °F
Wind: No wind

Location: Olympia Airport

Current Time: Jan 29, 2015 at 6:37:05 AM

Latest Report: Jan 29, 2015 at 6:01 AM


Visibility: 1 mi

Pressure: 30.36 "Hg

Humidity: 100%

Dew point: 36 °F

Location of OlympiaLocation

Historic Weather in Olympia — Graph

°F

Olympia temperature yesterday

Maximum temperature yesterday: 49 °F (at 3:54 PM)
Minimum temperature yesterday: 35 °F (at 10:04 PM)
Average temperature yesterday: 42 °F

Past Weeks' High & Low Weather Summary

 TemperatureHumidityPressure
High63 °F (Jan 26, 2:54 PM)100% (Jan 16, 9:00 PM)30.46 "Hg (Jan 16, 9:00 PM)
Low29 °F (Jan 14, 10:54 PM)54% (Jan 26, 1:54 PM)29.61 "Hg (Jan 17, 10:54 PM)
Average45 °F90%30.20 "Hg
* Reported Jan 14 4:54 AM — Jan 29 4:54 AM, Olympia, Weather by CustomWeather, © 2014

Note: Actual official high and low records may vary slightly from our data, if they occured in-between our weather recording intervals... More about our weather records

Advertising

Olympia weather history for previous 24 hours

 ConditionsComfort  
Time TempWeatherWind HumidityBarometerVisibility
4:54 AM
Jan 29
36 °FFog.No wind97%30.36 "Hg0 mi
3:54 AM36 °FFog.5 mph100%30.36 "Hg1 mi
2:54 AM37 °FFog.No wind100%30.37 "Hg1 mi
1:54 AM39 °FFog.5 mph96%30.36 "Hg1 mi
12:54 AM39 °FFog.No wind96%30.36 "Hg0 mi
11:54 PM
Jan 28
36 °FFog.No wind100%30.37 "Hg0 mi
10:54 PM38 °FFog.No wind100%30.36 "Hg0 mi
10:04 PM35 °FFog.No wind100%30.36 "Hg2 mi
9:54 PM36 °FFog.3 mph97%30.36 "Hg0 mi
8:54 PM38 °FFog.No wind97%30.36 "Hg1 mi
7:54 PM40 °FFog.5 mph100%30.36 "Hg1 mi
6:54 PM39 °FClear.No wind96%30.36 "Hg10 mi
5:54 PM42 °FFog.No wind92%30.36 "Hg6 mi
4:54 PM46 °FPassing clouds.No wind86%30.36 "Hg10 mi
3:54 PM49 °FOvercast.5 mph80%30.36 "Hg10 mi
2:54 PM48 °FOvercast.3 mph83%30.37 "Hg10 mi
1:54 PM48 °FOvercast.3 mph83%30.37 "Hg10 mi
12:54 PM48 °FOvercast.No wind83%30.39 "Hg10 mi
11:54 AM48 °FOvercast.3 mph83%30.39 "Hg10 mi
10:54 AM47 °FOvercast.No wind86%30.40 "Hg10 mi
9:54 AM46 °FMostly cloudy.7 mph89%30.38 "Hg10 mi
8:54 AM44 °FOvercast.No wind89%30.37 "Hg10 mi
7:54 AM42 °FMostly cloudy.No wind96%30.36 "Hg10 mi
6:54 AM42 °FOvercast.No wind92%30.35 "Hg10 mi
Weather by CustomWeather, © 2014

See weather overviewHow to use our weather pages